Time,TemperatureF,DewpointF,PressureIn,WindDirection,WindDirectionDegrees,WindSpeedMPH,WindSpeedGustMPH,Humidity,HourlyPrecipIn,Conditions,Clouds,dailyrainin,SoftwareType,DateUTC
2013-11-01 00:00:00,83.6,79.3,29.90,ESE,115,13.0,18.0,87,0.00,RA,,0.00,WeatherDisplay:10.37,2013-11-01 06:00:00,
2013-11-01 00:15:00,83.6,79.0,29.89,ESE,118,14.0,18.0,86,0.00,CLR,,0.00,WeatherDisplay:10.37,2013-11-01 06:15:00,
2013-11-01 00:30:00,83.5,78.9,29.89,ESE,118,12.0,15.0,86,0.00,CLR,,0.00,WeatherDisplay:10.37,2013-11-01 06:30:00,
2013-11-01 00:45:00,83.5,78.8,29.89,ESE,120,12.0,15.0,86,0.00,CLR,,0.00,WeatherDisplay:10.37,2013-11-01 06:45:00,
2013-11-01 01:00:00,83.6,79.3,29.89,ESE,121,10.0,15.0,87,0.00,CLR,,0.00,WeatherDisplay:10.37,2013-11-01 07:00:00,
2013-11-01 01:15:00,83.5,78.9,29.88,ESE,120,14.0,16.0,86,0.00,CLR,,0.00,WeatherDisplay:10.37,2013-11-01 07:15:00,
2013-11-01 01:30:00,83.6,78.9,29.88,ESE,120,14.0,16.0,86,0.00,CLR,,0.00,WeatherDisplay:10.37,2013-11-01 07:30:00,
2013-11-01 01:45:00,83.5,78.8,29.87,ESE,121,14.0,18.0,86,0.00,CLR,,0.00,WeatherDisplay:10.37,2013-11-01 07:45:00,
2013-11-01 02:00:00,83.5,78.9,29.87,ESE,115,13.0,17.0,86,0.00,CLR,,0.00,WeatherDisplay:10.37,2013-11-01 08:00:00,
2013-11-01 02:15:00,83.6,78.6,29.87,ESE,119,12.0,18.0,85,0.00,CLR,,0.00,WeatherDisplay:10.37,2013-11-01 08:15:00,
2013-11-01 02:30:00,83.5,78.9,29.87,ESE,113,14.0,15.0,86,0.00,CLR,,0.00,WeatherDisplay:10.37,2013-11-01 08:30:00,
2013-11-01 02:45:00,83.5,79.2,29.86,ESE,120,12.0,15.0,87,0.00,CLR,,0.00,WeatherDisplay:10.37,2013-11-01 08:45:00,
2013-11-01 03:00:00,83.4,79.1,29.86,ESE,116,12.0,18.0,87,0.00,CLR,,0.00,WeatherDisplay:10.37,2013-11-01 09:00:00,
2013-11-01 03:15:00,83.5,78.9,29.86,ESE,115,13.0,15.0,86,0.00,CLR,,0.00,WeatherDisplay:10.37,2013-11-01 09:15:00,
2013-11-01 03:30:00,83.4,78.8,29.86,ESE,113,10.0,14.0,86,0.00,CLR,,0.00,WeatherDisplay:10.37,2013-11-01 09:30:00,
2013-11-01 03:45:00,83.2,78.9,29.86,ESE,114,13.0,14.0,87,0.00,CLR,,0.00,WeatherDisplay:10.37,2013-11-01 09:45:00,
2013-11-01 04:00:00,83.4,78.4,29.86,ESE,119,10.0,16.0,85,0.00,CLR,,0.00,WeatherDisplay:10.37,2013-11-01 10:00:00,
2013-11-01 04:15:00,83.5,77.7,29.86,ESE,116,14.0,15.0,83,0.00,CLR,,0.00,WeatherDisplay:10.37,2013-11-01 10:15:00,
2013-11-01 04:30:00,83.5,78.2,29.86,ESE,120,12.0,16.0,84,0.00,CLR,,0.00,WeatherDisplay:10.37,2013-11-01 10:30:00,
2013-11-01 04:45:00,83.4,78.8,29.86,ESE,117,12.0,13.0,86,0.00,CLR,,0.00,WeatherDisplay:10.37,2013-11-01 10:45:00,
2013-11-01 05:00:00,83.5,78.9,29.86,ESE,118,12.0,15.0,86,0.00,CLR,,0.00,WeatherDisplay:10.37,2013-11-01 11:00:00,
2013-11-01 05:15:00,83.3,78.4,29.87,ESE,116,12.0,14.0,85,0.00,CLR,,0.00,WeatherDisplay:10.37,2013-11-01 11:15:00,
2013-11-01 05:30:00,83.3,78.7,29.87,ESE,111,12.0,14.0,86,0.00,CLR,,0.00,WeatherDisplay:10.37,2013-11-01 11:30:00,
2013-11-01 05:45:00,83.3,78.7,29.88,ESE,112,12.0,15.0,86,0.00,CLR,,0.00,WeatherDisplay:10.37,2013-11-01 11:45:00,
2013-11-01 06:00:00,83.5,78.5,29.88,ESE,114,12.0,15.0,85,0.00,CLR,,0.00,WeatherDisplay:10.37,2013-11-01 12:00:00,
2013-11-01 06:15:00,83.8,78.8,29.89,ESE,110,13.0,16.0,85,0.00,CLR,,0.00,WeatherDisplay:10.37,2013-11-01 12:15:00,
2013-11-01 06:30:00,84.0,79.0,29.89,ESE,117,12.0,14.0,85,0.00,CLR,,0.00,WeatherDisplay:10.37,2013-11-01 12:30:00,
2013-11-01 06:45:00,83.7,79.1,29.89,ESE,112,12.0,14.0,86,0.00,CLR,,0.00,WeatherDisplay:10.37,2013-11-01 12:45:00,
2013-11-01 07:00:00,84.5,79.8,29.89,ESE,111,12.0,14.0,86,0.00,CLR,,0.00,WeatherDisplay:10.37,2013-11-01 13:00:00,
2013-11-01 07:15:00,84.7,79.3,29.89,ESE,112,12.0,14.0,84,0.00,CLR,,0.00,WeatherDisplay:10.37,2013-11-01 13:15:00,
2013-11-01 07:30:00,84.9,79.5,29.90,ESE,117,13.0,18.0,84,0.00,CLR,,0.00,WeatherDisplay:10.37,2013-11-01 13:30:00,
2013-11-01 07:45:00,85.2,79.8,29.90,ESE,118,12.0,15.0,84,0.00,CLR,,0.00,WeatherDisplay:10.37,2013-11-01 13:45:00,
2013-11-01 08:00:00,85.3,79.2,29.90,ESE,114,13.0,16.0,82,0.00,CLR,,0.00,WeatherDisplay:10.37,2013-11-01 14:00:00,
2013-11-01 08:15:00,85.5,79.4,29.91,ESE,111,10.0,14.0,82,0.00,CLR,,0.00,WeatherDisplay:10.37,2013-11-01 14:15:00,
2013-11-01 08:30:00,85.7,79.5,29.91,ESE,120,10.0,14.0,82,0.00,CLR,,0.00,WeatherDisplay:10.37,2013-11-01 14:30:00,
2013-11-01 08:45:00,85.8,79.7,29.92,ESE,116,10.0,13.0,82,0.00,CLR,,0.00,WeatherDisplay:10.37,2013-11-01 14:45:00,
2013-11-01 09:00:00,85.9,80.5,29.92,ESE,115,10.0,15.0,84,0.00,CLR,,0.00,WeatherDisplay:10.37,2013-11-01 15:00:00,
2013-11-01 09:15:00,85.9,80.1,29.92,ESE,113,12.0,15.0,83,0.00,CLR,,0.00,WeatherDisplay:10.37,2013-11-01 15:15:00,
2013-11-01 09:31:00,85.8,79.7,29.93,ESE,109,14.0,15.0,82,0.00,CLR,,0.00,WeatherDisplay:10.37,2013-11-01 15:31:00,
2013-11-01 09:45:00,86.1,79.9,29.93,ESE,110,12.0,15.0,82,0.00,CLR,,0.00,WeatherDisplay:10.37,2013-11-01 15:45:00,
2013-11-01 10:00:00,86.3,80.2,29.93,East,101,8.0,13.0,82,0.00,CLR,,0.00,WeatherDisplay:10.37,2013-11-01 16:00:00,
2013-11-01 10:15:00,86.7,80.5,29.93,ESE,118,8.0,13.0,82,0.00,CLR,,0.00,WeatherDisplay:10.37,2013-11-01 16:15:00,
2013-11-01 10:30:00,86.8,80.2,29.93,ESE,123,8.0,13.0,81,0.00,CLR,,0.00,WeatherDisplay:10.37,2013-11-01 16:30:00,
2013-11-01 10:45:00,87.0,80.4,29.92,ESE,105,5.0,10.0,81,0.00,CLR,,0.00,WeatherDisplay:10.37,2013-11-01 16:45:00,
2013-11-01 11:00:00,87.2,80.3,29.92,ESE,114,8.0,10.0,80,0.00,CLR,,0.00,WeatherDisplay:10.37,2013-11-01 17:00:00,
2013-11-01 11:15:00,86.9,80.0,29.91,ESE,112,8.0,10.0,80,0.00,CLR,,0.00,WeatherDisplay:10.37,2013-11-01 17:15:00,
2013-11-01 11:30:00,87.1,80.2,29.90,ESE,118,8.0,12.0,80,0.00,CLR,,0.00,WeatherDisplay:10.37,2013-11-01 17:30:00,
2013-11-01 11:45:00,87.0,80.5,29.90,ESE,109,6.0,10.0,81,0.00,CLR,,0.00,WeatherDisplay:10.37,2013-11-01 17:45:00,
2013-11-01 12:00:00,87.6,80.6,29.89,ESE,109,2.0,10.0,80,0.00,CLR,,0.00,WeatherDisplay:10.37,2013-11-01 18:00:00,
2013-11-01 12:15:00,87.2,80.3,29.89,ESE,108,6.0,10.0,80,0.00,CLR,,0.00,WeatherDisplay:10.37,2013-11-01 18:15:00,
2013-11-01 12:30:00,87.1,80.5,29.88,ESE,107,6.0,10.0,81,0.00,CLR,,0.00,WeatherDisplay:10.37,2013-11-01 18:30:00,
2013-11-01 12:45:00,87.0,80.1,29.87,ESE,106,5.0,9.0,80,0.00,CLR,,0.00,WeatherDisplay:10.37,2013-11-01 18:45:00,
2013-11-01 13:00:00,87.0,80.5,29.86,ESE,111,3.0,10.0,81,0.00,CLR,,0.00,WeatherDisplay:10.37,2013-11-01 19:00:00,
2013-11-01 13:15:00,86.9,80.0,29.86,East,96,5.0,10.0,80,0.00,CLR,,0.00,WeatherDisplay:10.37,2013-11-01 19:15:00,
2013-11-01 13:30:00,86.9,80.0,29.86,ESE,104,5.0,10.0,80,0.00,CLR,,0.00,WeatherDisplay:10.37,2013-11-01 19:30:00,
2013-11-01 13:45:00,87.0,80.0,29.85,ESE,106,3.0,9.0,80,0.00,CLR,,0.00,WeatherDisplay:10.37,2013-11-01 19:45:00,
2013-11-01 14:00:00,87.1,80.6,29.84,East,96,5.0,10.0,81,0.00,CLR,,0.00,WeatherDisplay:10.37,2013-11-01 20:00:00,
2013-11-01 14:15:00,86.8,79.9,29.84,East,95,6.0,10.0,80,0.00,CLR,,0.00,WeatherDisplay:10.37,2013-11-01 20:15:00,
2013-11-01 14:30:00,86.2,80.1,29.84,ESE,110,7.0,12.0,82,0.00,CLR,,0.00,WeatherDisplay:10.37,2013-11-01 20:30:00,
2013-11-01 14:45:00,86.1,79.6,29.83,ESE,107,6.0,10.0,81,0.00,CLR,,0.00,WeatherDisplay:10.37,2013-11-01 20:45:00,
2013-11-01 15:00:00,86.2,79.7,29.83,ESE,104,3.0,10.0,81,0.00,CLR,,0.00,WeatherDisplay:10.37,2013-11-01 21:00:00,
2013-11-01 15:15:00,86.1,79.6,29.83,ESE,104,6.0,12.0,81,0.00,CLR,,0.00,WeatherDisplay:10.37,2013-11-01 21:15:00,
2013-11-01 15:30:00,85.8,79.3,29.83,East,95,7.0,13.0,81,0.00,CLR,,0.00,WeatherDisplay:10.37,2013-11-01 21:30:00,
2013-11-01 15:45:00,85.7,79.2,29.83,ESE,103,3.0,10.0,81,0.00,CLR,,0.00,WeatherDisplay:10.37,2013-11-01 21:45:00,
2013-11-01 16:00:00,85.7,79.5,29.82,East,96,5.0,10.0,82,0.00,CLR,,0.00,WeatherDisplay:10.37,2013-11-01 22:00:00,
2013-11-01 16:15:00,85.2,79.1,29.82,East,93,7.0,10.0,82,0.00,CLR,,0.00,WeatherDisplay:10.37,2013-11-01 22:15:00,
2013-11-01 16:26:00,85.0,78.8,29.83,East,90,9.0,12.0,82,0.00,CLR,,0.00,WeatherDisplay:10.37,2013-11-01 22:26:00,
2013-11-01 16:45:00,84.3,78.6,29.83,East,87,8.0,10.0,83,0.00,CLR,,0.00,WeatherDisplay:10.37,2013-11-01 22:45:00,
2013-11-01 17:00:00,84.3,78.9,29.83,East,85,5.0,12.0,84,0.00,CLR,,0.00,WeatherDisplay:10.37,2013-11-01 23:00:00,
2013-11-01 17:15:00,84.0,78.6,29.84,East,90,8.0,12.0,84,0.00,CLR,,0.00,WeatherDisplay:10.37,2013-11-01 23:15:00,
2013-11-01 17:30:00,83.9,78.5,29.84,East,93,8.0,12.0,84,0.00,CLR,,0.00,WeatherDisplay:10.37,2013-11-01 23:30:00,
2013-11-01 17:45:00,84.0,79.0,29.84,East,95,5.0,12.0,85,0.00,CLR,,0.00,WeatherDisplay:10.37,2013-11-01 23:45:00,
2013-11-01 18:00:00,83.9,78.9,29.85,East,93,10.0,13.0,85,0.00,CLR,,0.00,WeatherDisplay:10.37,2013-11-02 00:00:00,
2013-11-01 18:15:00,83.9,78.9,29.85,East,87,12.0,14.0,85,0.00,CLR,,0.00,WeatherDisplay:10.37,2013-11-02 00:15:00,
2013-11-01 18:30:00,83.7,78.3,29.86,East,83,10.0,14.0,84,0.00,CLR,,0.00,WeatherDisplay:10.37,2013-11-02 00:30:00,
2013-11-01 18:45:00,83.7,78.7,29.86,ENE,75,5.0,12.0,85,0.00,CLR,,0.00,WeatherDisplay:10.37,2013-11-02 00:45:00,
2013-11-01 19:00:00,83.8,78.8,29.87,East,85,8.0,15.0,85,0.00,CLR,,0.00,WeatherDisplay:10.37,2013-11-02 01:00:00,
2013-11-01 19:15:00,83.7,78.7,29.87,ENE,76,6.0,13.0,85,0.00,CLR,,0.00,WeatherDisplay:10.37,2013-11-02 01:15:00,
2013-11-01 19:30:00,83.7,78.7,29.88,East,89,8.0,13.0,85,0.00,CLR,,0.00,WeatherDisplay:10.37,2013-11-02 01:30:00,
2013-11-01 19:45:00,83.8,78.8,29.89,East,87,9.0,13.0,85,0.00,CLR,,0.00,WeatherDisplay:10.37,2013-11-02 01:45:00,
2013-11-01 20:00:00,83.8,78.8,29.89,East,82,12.0,14.0,85,0.00,CLR,,0.00,WeatherDisplay:10.37,2013-11-02 02:00:00,
2013-11-01 20:15:00,83.9,78.9,29.89,East,90,9.0,14.0,85,0.00,CLR,,0.00,WeatherDisplay:10.37,2013-11-02 02:15:00,
2013-11-01 20:30:00,83.9,78.9,29.90,East,83,12.0,16.0,85,0.00,CLR,,0.00,WeatherDisplay:10.37,2013-11-02 02:30:00,
2013-11-01 20:45:00,83.9,78.9,29.90,East,90,12.0,15.0,85,0.00,CLR,,0.00,WeatherDisplay:10.37,2013-11-02 02:45:00,
2013-11-01 21:00:00,84.0,79.0,29.91,East,94,10.0,16.0,85,0.00,CLR,,0.00,WeatherDisplay:10.37,2013-11-02 03:00:00,
2013-11-01 21:15:00,83.9,79.3,29.90,East,96,12.0,16.0,86,0.00,CLR,,0.00,WeatherDisplay:10.37,2013-11-02 03:15:00,
2013-11-01 21:30:00,83.7,79.1,29.91,East,88,13.0,16.0,86,0.00,CLR,,0.00,WeatherDisplay:10.37,2013-11-02 03:30:00,
2013-11-01 21:45:00,83.8,79.2,29.91,East,87,10.0,16.0,86,0.00,CLR,,0.00,WeatherDisplay:10.37,2013-11-02 03:45:00,
2013-11-01 22:00:00,83.7,79.4,29.91,East,88,12.0,18.0,87,0.00,CLR,,0.00,WeatherDisplay:10.37,2013-11-02 04:00:00,
2013-11-01 22:15:00,83.6,79.7,29.91,East,93,13.0,16.0,88,0.00,CLR,,0.00,WeatherDisplay:10.37,2013-11-02 04:15:00,
2013-11-01 22:30:00,83.6,79.7,29.91,East,100,10.0,15.0,88,0.00,CLR,,0.00,WeatherDisplay:10.37,2013-11-02 04:30:00,
2013-11-01 22:45:00,83.7,79.4,29.91,East,97,8.0,16.0,87,0.00,CLR,,0.00,WeatherDisplay:10.37,2013-11-02 04:45:00,
2013-11-01 23:00:00,83.6,79.3,29.91,ESE,103,6.0,14.0,87,0.00,CLR,,0.00,WeatherDisplay:10.37,2013-11-02 05:00:00,
2013-11-01 23:15:00,83.7,79.8,29.90,East,93,6.0,16.0,88,0.00,CLR,,0.00,WeatherDisplay:10.37,2013-11-02 05:15:00,
2013-11-01 23:30:00,83.5,79.6,29.90,East,94,6.0,14.0,88,0.00,CLR,,0.00,WeatherDisplay:10.37,2013-11-02 05:30:00,
2013-11-01 23:45:00,83.6,79.6,29.90,ESE,111,10.0,14.0,88,0.00,CLR,,0.00,WeatherDisplay:10.37,2013-11-02 05:45:00,